Location: Hylvaty SDH
(49.9612°N, 16.4057°E)
Time: 19:43:41
(UTC+02:00)

Transit 4A - Pass Details

Date: 10 August 2020
Orbit: 862 x 982 km, 66.8° (Epoch: 28 September)

Event Time Altitude Azimuth Distance (km) Brightness Sun altitude
Rises 12:47:07 0° 267° (W) 3,535 10.9 55.3°
Reaches altitude 10° 12:50:07 10° 281° (WNW) 2,617 10.3 55.3°
Maximum altitude 12:54:59 24° 334° (NNW) 1,837 9.4 55.4°
Drops below altitude 10° 12:59:58 10° 27° (NNE) 2,689 10.1 55.4°
Sets 13:03:07 0° 41° (NE) 3,656 10.7 55.4°
